Regional Weather Roundup
Issued by NWS

Home | Current Version | Previous Version | Graphics & Text | Print | Product List | Glossary On
Versions: 1 2 3 4 5 6 7 8 9 10 11 12 13 14 15 16 17 18 19 20 21 22 23 24 25 26 27 28 29 30 31 32 33 34 35 36 37 38 39 40 41 42 43 44 45 46 47 48 49 50
000
ASUS45 KCYS 180810
RWRWY

WYOMING REGIONAL WEATHER ROUNDUP
NATIONAL WEATHER SERVICE CHEYENNE WY
200 AM MDT THU SEP 18 2014

NOTE:  "FAIR" INDICATES FEW OR NO CLOUDS BELOW 12,000 FEET
WITH NO SIGNIFICANT WEATHER AND/OR OBSTRUCTIONS TO VISIBILITY.

WYZ001-180900-
YELLOWSTONE NATIONAL PARK

CITY           SKY/WX    TMP DP  RH WIND       PRES   REMARKS
LK YELLOWSTONE   N/A     41  37  86 CALM      30.18F
W YELLOWSTONE  NOT AVBL

$$
WYZ002>013-054>058-071-098>099-180900-
NORTHERN WYOMING

CITY           SKY/WX    TMP DP  RH WIND       PRES   REMARKS
JACKSON        PTCLDY    45  39  81 N8        30.10S
CODY             N/A    N/A N/A N/A MISG        N/A
GREYBULL       CLEAR     57  49  74 E5        29.93S
WORLAND        CLEAR     54  46  74 SE7       29.94F
SHERIDAN       PTCLDY    61  45  55 CALM      29.90F
BUFFALO        PTCLDY    58  43  57 SW5       29.99F
GILLETTE       CLEAR     63  49  60 S16       29.94F
HULETT         FAIR      61  46  59 MISG      29.95
NEWCASTLE      FAIR      59  45  58 CALM      29.98

$$
WYZ014>020-022>026-101>103-180900-
CENTRAL WYOMING

CITY           SKY/WX    TMP DP  RH WIND       PRES   REMARKS
BIG PINEY      PTCLDY    41  38  89 CALM      30.16S
PINEDALE       MOSUNNY   41  36  81 W6        30.17S
DUBOIS         FAIR      46  36  66 NW5       30.16F
LANDER         CLEAR     58  39  49 NW7       30.03F
RIVERTON       CLEAR     54  38  54 CALM      30.04F
CASPER         CLEAR     53  37  54 W8        30.04S
DOUGLAS        CLEAR     50  41  71 CALM      30.02F

$$
WYZ021-027>030-104>119-180900-
SOUTHERN WYOMING

CITY           SKY/WX    TMP DP  RH WIND       PRES   REMARKS
EVANSTON       PTCLDY    59  38  45 SE7       30.14S
KEMMERER       SUNNY     50  37  62 N7        30.16S
FORT BRIDGER   FAIR      52  40  61 SE9       30.17S
ROCK SPRINGS   CLEAR     59  35  40 SE6       30.13F
DIXON          FAIR      53  40  63 CALM      30.17S
RAWLINS        CLEAR     49  36  61 CALM      30.15F
SARATOGA       FAIR      52  39  62 CALM      30.18S
LARAMIE        CLEAR     46  37  71 S7        30.18F
CHEYENNE       CLEAR     53  41  63 W9        30.11S
TORRINGTON     CLEAR     50  45  83 E7        29.97R
PINE BLUFFS    FAIR      46  41  81 CALM      30.05F

$$


USA.gov is the U.S. government's official web portal to all federal, state and local government web resources and services.